QPF
0.00 0.01 0.01 0.02 0.02 0.02 0.03 0.04 0.07 0.05 0.01 0.00 0.01 0.01 0.01 0.02 0.05 0.07 0.08 0.11 0.11 0.09 0.07 0.05 0.03 0.03 0.05 0.17 0.48 0.73 0.79 0.74 0.55 0.36 0.24 0.17 0.11 0.07
0.01 0.01 0.01 0.01 0.01 0.01 0.02 0.02 0.04 0.06 0.04 0.01 0.01 0.01 0.01 0.02 0.04 0.05 0.07 0.10 0.12 0.10 0.07 0.05 0.03 0.02 0.03 0.05 0.17 0.48 0.66 0.71 0.67 0.54 0.40 0.28 0.20 0.14
0.01 0.01 0.01 0.01 0.01 0.01 0.02 0.02 0.03 0.04 0.05 0.02 0.01 0.01 0.01 0.02 0.04 0.05 0.06 0.08 0.10 0.11 0.10 0.06 0.04 0.03 0.03 0.03 0.06 0.20 0.46 0.62 0.63 0.60 0.54 0.41 0.30 0.21
0.02 0.02 0.01 0.01 0.01 0.01 0.02 0.02 0.02 0.03 0.04 0.03 0.01 0.01 0.01 0.02 0.04 0.06 0.07 0.08 0.10 0.11 0.10 0.08 0.05 0.04 0.03 0.02 0.04 0.08 0.20 0.41 0.52 0.51 0.49 0.42 0.34 0.27
0.03 0.03 0.02 0.02 0.02 0.02 0.03 0.03 0.03 0.03 0.03 0.03 0.01 0.01 0.01 0.02 0.03 0.06 0.08 0.09 0.11 0.12 0.10 0.09 0.07 0.05 0.03 0.03 0.02 0.04 0.07 0.14 0.28 0.39 0.42 0.41 0.33 0.28
0.04 0.04 0.04 0.03 0.03 0.04 0.05 0.05 0.04 0.03 0.03 0.02 0.02 0.01 0.02 0.02 0.03 0.06 0.08 0.10 0.12 0.14 0.13 0.10 0.09 0.06 0.04 0.02 0.02 0.02 0.04 0.07 0.13 0.25 0.33 0.36 0.33 0.26
0.04 0.04 0.04 0.04 0.05 0.08 0.10 0.09 0.06 0.04 0.03 0.03 0.02 0.02 0.02 0.02 0.03 0.05 0.08 0.10 0.12 0.16 0.17 0.13 0.08 0.05 0.03 0.02 0.01 0.01 0.02 0.04 0.06 0.12 0.22 0.29 0.33 0.29
0.05 0.05 0.05 0.04 0.04 0.03 0.05 0.08 0.06 0.07 0.07 0.05 0.04 0.03 0.03 0.02 0.03 0.03 0.07 0.10 0.11 0.14 0.16 0.14 0.10 0.06 0.03 0.01 0.01 0.01 0.01 0.03 0.04 0.06 0.12 0.21 0.28 0.32
0.07 0.06 0.05 0.05 0.04 0.01 0.02 0.02 0.03 0.05 0.06 0.06 0.06 0.05 0.04 0.03 0.03 0.02 0.04 0.07 0.10 0.13 0.16 0.15 0.12 0.08 0.04 0.02 0.01 0.01 0.01 0.02 0.03 0.05 0.07 0.13 0.19 0.27
0.06 0.06 0.04 0.05 0.06 0.02 0.01 0.02 0.02 0.03 0.04 0.06 0.07 0.06 0.05 0.04 0.03 0.03 0.03 0.05 0.07 0.11 0.16 0.16 0.13 0.09 0.05 0.02 0.01 0.01 0.01 0.01 0.02 0.03 0.05 0.09 0.14 0.20
0.04 0.05 0.03 0.02 0.04 0.02 0.01 0.01 0.02 0.02 0.02 0.04 0.04 0.03 0.03 0.03 0.02 0.02 0.02 0.04 0.05 0.09 0.14 0.16 0.15 0.09 0.06 0.03 0.01 0.01 0.01 0.01 0.01 0.02 0.04 0.06 0.08 0.12
0.03 0.05 0.05 0.03 0.03 0.02 0.01 0.01 0.02 0.02 0.01 0.01 0.01 0.01 0.01 0.01 0.02 0.03 0.03 0.04 0.05 0.08 0.12 0.13 0.15 0.10 0.06 0.04 0.02 0.02 0.02 0.03 0.03 0.04 0.04 0.05 0.05 0.05
0.01 0.01 0.02 0.02 0.01 0.01 0.01 0.01 0.03 0.01 0.01 0.01 0.01 0.01 0.01 0.01 0.02 0.03 0.04 0.04 0.05 0.06 0.10 0.12 0.13 0.11 0.05 0.04 0.04 0.04 0.04 0.04 0.04 0.06 0.07 0.07 0.06 0.03
0.00 0.00 0.00 0.01 0.00 0.00 0.01 0.01 0.01 0.00 0.00 0.01 0.01 0.01 0.01 0.02 0.02 0.03 0.04 0.04 0.05 0.06 0.09 0.11 0.11 0.10 0.06 0.02 0.03 0.06 0.06 0.05 0.05 0.05 0.06 0.10 0.10 0.08
0.00 0.00 0.00 0.00 0.00 0.00 0.00 0.00 0.00 0.00 0.00 0.01 0.01 0.01 0.02 0.03 0.03 0.03 0.04 0.05 0.05 0.06 0.09 0.10 0.11 0.11 0.07 0.02 0.01 0.03 0.06 0.08 0.07 0.05 0.05 0.05 0.06 0.06
0.00 0.00 0.00 0.00 0.00 0.00 0.00 0.00 0.00 0.00 0.01 0.01 0.01 0.01 0.01 0.02 0.02 0.04 0.05 0.07 0.07 0.08 0.10 0.12 0.13 0.16 0.14 0.06 0.02 0.01 0.03 0.07 0.09 0.07 0.06 0.06 0.05 0.04
0.00 0.00 0.00 0.00 0.00 0.00 0.00 0.00 0.00 0.00 0.00 0.00 0.01 0.01 0.01 0.02 0.03 0.04 0.06 0.08 0.09 0.11 0.13 0.15 0.17 0.20 0.23 0.17 0.08 0.03 0.03 0.04 0.07 0.08 0.07 0.08 0.09 0.08
0.00 0.00 0.00 0.00 0.00 0.00 0.00 0.00 0.00 0.00 0.00 0.00 0.00 0.01 0.01 0.02 0.03 0.04 0.06 0.09 0.12 0.13 0.15 0.18 0.20 0.22 0.29 0.36 0.28 0.13 0.06 0.06 0.07 0.07 0.07 0.07 0.10 0.11
0.00 0.00 0.00 0.00 0.00 0.00 0.00 0.00 0.00 0.00 0.00 0.00 0.00 0.01 0.01 0.01 0.02 0.04 0.05 0.08 0.12 0.15 0.17 0.19 0.21 0.21 0.25 0.37 0.48 0.33 0.15 0.09 0.08 0.09 0.10 0.08 0.09 0.10
0.00 0.00 0.00 0.00 0.00 0.00 0.00 0.00 0.00 0.00 0.00 0.00 0.00 0.00 0.01 0.01 0.02 0.03 0.05 0.08 0.11 0.14 0.16 0.19 0.23 0.25 0.23 0.23 0.31 0.42 0.33 0.16 0.09 0.09 0.12 0.13 0.13 0.11
0.01 0.01 0.00 0.00 0.00 0.00 0.00 0.00 0.00 0.00 0.00 0.00 0.00 0.00 0.00 0.01 0.01 0.02 0.04 0.06 0.09 0.12 0.14 0.18 0.23 0.26 0.26 0.22 0.21 0.30 0.37 0.32 0.17 0.10 0.09 0.10 0.11 0.11
0.01 0.01 0.01 0.00 0.00 0.00 0.00 0.00 0.00 0.00 0.00 0.00 0.00 0.00 0.00 0.00 0.01 0.02 0.03 0.04 0.07 0.10 0.13 0.16 0.19 0.22 0.26 0.28 0.29 0.29 0.31 0.33 0.30 0.19 0.10 0.05 0.04 0.04
0.03 0.02 0.02 0.01 0.01 0.00 0.00 0.00 0.00 0.00 0.00 0.00 0.00 0.00 0.00 0.00 0.01 0.01 0.02 0.03 0.05 0.08 0.10 0.14 0.16 0.18 0.23 0.28 0.30 0.29 0.26 0.23 0.20 0.17 0.16 0.11 0.05 0.03
MSLP
1020.52 1020.16 1019.77 1019.28 1018.65 1017.88 1016.97 1015.94 1014.85 1013.75 1012.68 1011.69 1010.81 1010.04 1009.36 1008.76 1008.21 1007.68 1007.18 1006.69 1006.25 1005.87 1005.58 1005.41 1005.37 1005.47 1005.71 1006.08 1006.56 1007.13 1007.77 1008.48 1009.25 1010.06 1010.91 1011.78 1012.64 1013.49
1019.44 1019.16 1018.84 1018.43 1017.90 1017.21 1016.37 1015.41 1014.39 1013.35 1012.35 1011.42 1010.59 1009.86 1009.22 1008.63 1008.09 1007.56 1007.05 1006.55 1006.08 1005.67 1005.35 1005.14 1005.06 1005.11 1005.29 1005.60 1006.01 1006.52 1007.11 1007.79 1008.54 1009.36 1010.23 1011.14 1012.07 1012.98
1018.39 1018.14 1017.88 1017.54 1017.08 1016.47 1015.72 1014.85 1013.92 1012.97 1012.04 1011.19 1010.42 1009.73 1009.12 1008.55 1008.01 1007.47 1006.94 1006.42 1005.93 1005.50 1005.16 1004.93 1004.82 1004.83 1004.97 1005.22 1005.57 1006.02 1006.57 1007.20 1007.92 1008.73 1009.61 1010.54 1011.51 1012.46
1017.53 1017.30 1017.07 1016.78 1016.37 1015.83 1015.16 1014.38 1013.54 1012.68 1011.85 1011.07 1010.36 1009.72 1009.13 1008.57 1008.02 1007.46 1006.91 1006.37 1005.86 1005.42 1005.07 1004.82 1004.69 1004.68 1004.78 1004.99 1005.30 1005.69 1006.17 1006.75 1007.42 1008.20 1009.06 1010.00 1010.97 1011.95
1017.00 1016.78 1016.56 1016.28 1015.91 1015.41 1014.80 1014.09 1013.33 1012.56 1011.80 1011.09 1010.44 1009.84 1009.26 1008.71 1008.15 1007.58 1007.01 1006.45 1005.93 1005.48 1005.12 1004.87 1004.73 1004.70 1004.77 1004.94 1005.19 1005.52 1005.94 1006.45 1007.06 1007.77 1008.59 1009.49 1010.45 1011.43
1016.90 1016.65 1016.41 1016.12 1015.75 1015.27 1014.68 1014.02 1013.32 1012.61 1011.92 1011.27 1010.66 1010.09 1009.54 1008.99 1008.42 1007.85 1007.27 1006.70 1006.18 1005.72 1005.35 1005.09 1004.94 1004.89 1004.93 1005.05 1005.25 1005.51 1005.85 1006.27 1006.80 1007.44 1008.19 1009.03 1009.95 1010.90
1017.20 1016.91 1016.63 1016.30 1015.89 1015.40 1014.81 1014.17 1013.49 1012.82 1012.17 1011.56 1011.00 1010.46 1009.93 1009.39 1008.84 1008.27 1007.69 1007.13 1006.60 1006.14 1005.77 1005.49 1005.32 1005.23 1005.23 1005.29 1005.42 1005.60 1005.85 1006.19 1006.62 1007.17 1007.83 1008.60 1009.45 1010.36
1017.84 1017.50 1017.15 1016.76 1016.29 1015.75 1015.14 1014.48 1013.81 1013.15 1012.53 1011.95 1011.42 1010.91 1010.41 1009.90 1009.37 1008.82 1008.25 1007.70 1007.17 1006.71 1006.32 1006.02 1005.81 1005.68 1005.62 1005.61 1005.66 1005.76 1005.92 1006.17 1006.51 1006.96 1007.53 1008.22 1009.01 1009.87
1018.69 1018.28 1017.86 1017.39 1016.86 1016.26 1015.60 1014.91 1014.23 1013.57 1012.96 1012.40 1011.90 1011.42 1010.95 1010.48 1009.98 1009.45 1008.91 1008.36 1007.84 1007.37 1006.95 1006.62 1006.36 1006.17 1006.04 1005.96 1005.93 1005.95 1006.03 1006.19 1006.45 1006.83 1007.33 1007.95 1008.68 1009.50
1019.57 1019.12 1018.64 1018.10 1017.50 1016.84 1016.14 1015.42 1014.71 1014.05 1013.44 1012.90 1012.41 1011.96 1011.53 1011.08 1010.61 1010.11 1009.58 1009.05 1008.52 1008.02 1007.58 1007.20 1006.88 1006.63 1006.43 1006.29 1006.20 1006.16 1006.19 1006.29 1006.50 1006.83 1007.28 1007.86 1008.55 1009.34
1020.37 1019.89 1019.37 1018.80 1018.16 1017.47 1016.73 1015.99 1015.26 1014.59 1013.98 1013.44 1012.96 1012.52 1012.10 1011.67 1011.22 1010.73 1010.21 1009.67 1009.13 1008.61 1008.13 1007.70 1007.33 1007.02 1006.77 1006.59 1006.46 1006.40 1006.41 1006.51 1006.71 1007.03 1007.47 1008.03 1008.71 1009.49
1020.98 1020.51 1020.00 1019.43 1018.79 1018.09 1017.36 1016.61 1015.88 1015.20 1014.58 1014.04 1013.55 1013.10 1012.68 1012.24 1011.78 1011.28 1010.75 1010.19 1009.62 1009.07 1008.55 1008.08 1007.67 1007.33 1007.06 1006.86 1006.74 1006.70 1006.74 1006.88 1007.12 1007.48 1007.94 1008.53 1009.22 1010.01
1021.38 1020.96 1020.50 1019.98 1019.39 1018.73 1018.02 1017.29 1016.58 1015.90 1015.27 1014.70 1014.19 1013.71 1013.25 1012.77 1012.27 1011.74 1011.17 1010.58 1009.97 1009.38 1008.83 1008.33 1007.91 1007.57 1007.31 1007.15 1007.08 1007.10 1007.22 1007.44 1007.77 1008.20 1008.73 1009.37 1010.09 1010.90
1021.58 1021.25 1020.89 1020.45 1019.94 1019.36 1018.72 1018.04 1017.35 1016.68 1016.04 1015.45 1014.89 1014.35 1013.82 1013.28 1012.72 1012.12 1011.49 1010.85 1010.20 1009.58 1009.01 1008.50 1008.09 1007.77 1007.57 1007.48 1007.49 1007.62 1007.86 1008.20 1008.63 1009.16 1009.78 1010.49 1011.26 1012.09
1021.63 1021.42 1021.17 1020.85 1020.46 1019.98 1019.43 1018.82 1018.18 1017.53 1016.88 1016.25 1015.64 1015.03 1014.42 1013.79 1013.14 1012.46 1011.77 1011.06 1010.37 1009.73 1009.14 1008.65 1008.27 1008.01 1007.88 1007.88 1008.01 1008.26 1008.63 1009.10 1009.66 1010.30 1011.01 1011.78 1012.60 1013.45
1021.59 1021.49 1021.36 1021.18 1020.91 1020.55 1020.11 1019.59 1019.01 1018.39 1017.75 1017.10 1016.43 1015.75 1015.05 1014.34 1013.60 1012.83 1012.06 1011.30 1010.58 1009.91 1009.33 1008.86 1008.53 1008.33 1008.29 1008.39 1008.63 1009.01 1009.49 1010.08 1010.75 1011.49 1012.28 1013.11 1013.97 1014.82
1021.50 1021.50 1021.48 1021.41 1021.27 1021.04 1020.71 1020.28 1019.78 1019.22 1018.60 1017.94 1017.24 1016.51 1015.75 1014.95 1014.13 1013.30 1012.47 1011.66 1010.90 1010.23 1009.66 1009.22 1008.93 1008.79 1008.82 1009.01 1009.34 1009.81 1010.39 1011.07 1011.82 1012.62 1013.47 1014.33 1015.21 1016.07
1021.40 1021.46 1021.52 1021.54 1021.50 1021.37 1021.15 1020.83 1020.42 1019.93 1019.37 1018.74 1018.05 1017.30 1016.50 1015.66 1014.80 1013.91 1013.04 1012.20 1011.43 1010.75 1010.19 1009.77 1009.52 1009.43 1009.50 1009.74 1010.13 1010.65 1011.27 1011.99 1012.77 1013.61 1014.47 1015.35 1016.22 1017.08
1021.30 1021.37 1021.45 1021.52 1021.55 1021.50 1021.38 1021.17 1020.87 1020.48 1020.00 1019.44 1018.80 1018.09 1017.31 1016.47 1015.59 1014.70 1013.81 1012.96 1012.18 1011.51 1010.96 1010.55 1010.31 1010.24 1010.33 1010.58 1010.97 1011.49 1012.12 1012.82 1013.60 1014.42 1015.27 1016.13 1016.99 1017.83
1021.19 1021.22 1021.28 1021.35 1021.40 1021.42 1021.38 1021.27 1021.09 1020.82 1020.47 1020.02 1019.48 1018.85 1018.13 1017.34 1016.50 1015.63 1014.77 1013.93 1013.16 1012.49 1011.94 1011.54 1011.29 1011.21 1011.29 1011.51 1011.88 1012.36 1012.94 1013.60 1014.33 1015.10 1015.91 1016.74 1017.57 1018.40
1021.06 1021.00 1021.00 1021.02 1021.07 1021.11 1021.14 1021.13 1021.07 1020.94 1020.73 1020.44 1020.04 1019.53 1018.93 1018.24 1017.47 1016.66 1015.84 1015.03 1014.29 1013.63 1013.09 1012.68 1012.43 1012.32 1012.36 1012.54 1012.85 1013.27 1013.78 1014.37 1015.03 1015.74 1016.50 1017.29 1018.09 1018.89
1020.91 1020.72 1020.61 1020.57 1020.57 1020.62 1020.69 1020.77 1020.83 1020.85 1020.81 1020.68 1020.45 1020.10 1019.64 1019.08 1018.42 1017.70 1016.94 1016.20 1015.49 1014.86 1014.33 1013.93 1013.66 1013.53 1013.54 1013.67 1013.92 1014.27 1014.71 1015.23 1015.81 1016.46 1017.15 1017.89 1018.66 1019.44
1020.72 1020.39 1020.16 1020.01 1019.96 1019.99 1020.09 1020.24 1020.41 1020.57 1020.69 1020.74 1020.69 1020.52 1020.22 1019.80 1019.27 1018.66 1018.00 1017.32 1016.67 1016.09 1015.59 1015.20 1014.94 1014.81 1014.79 1014.90 1015.11 1015.40 1015.78 1016.24 1016.76 1017.34 1017.98 1018.67 1019.40 1020.16
Thickness
5157 5168 5179 5191 5203 5214 5228 5243 5261 5282 5304 5324 5345 5368 5389 5413 5439 5464 5486 5508 5528 5548 5566 5584 5600 5613 5625 5632 5639 5644 5647 5648 5649 5651 5652 5653 5654 5655
5145 5158 5171 5183 5195 5207 5219 5234 5250 5267 5289 5311 5329 5351 5373 5397 5423 5447 5470 5494 5515 5534 5552 5571 5587 5601 5613 5623 5632 5636 5642 5643 5645 5644 5645 5647 5648 5649
5137 5151 5164 5177 5188 5201 5212 5226 5242 5258 5278 5299 5319 5340 5361 5383 5408 5432 5457 5480 5501 5520 5540 5559 5575 5589 5602 5613 5622 5629 5634 5638 5638 5638 5640 5641 5642 5642
5134 5146 5159 5172 5183 5195 5207 5220 5234 5251 5269 5289 5309 5329 5350 5371 5395 5419 5443 5467 5487 5509 5528 5546 5563 5577 5590 5601 5611 5619 5626 5630 5632 5634 5636 5637 5637 5637
5133 5144 5156 5168 5179 5191 5202 5214 5228 5246 5262 5280 5299 5319 5339 5360 5382 5406 5430 5452 5474 5495 5516 5534 5549 5564 5577 5589 5599 5608 5617 5624 5627 5630 5631 5632 5632 5632
5134 5144 5155 5166 5176 5187 5199 5210 5223 5239 5256 5273 5291 5310 5330 5350 5370 5392 5416 5438 5460 5483 5504 5521 5536 5551 5565 5577 5589 5598 5606 5613 5619 5624 5626 5628 5628 5629
5135 5144 5154 5165 5176 5186 5197 5206 5218 5233 5248 5265 5283 5301 5319 5338 5356 5376 5399 5423 5448 5469 5489 5506 5523 5538 5550 5562 5573 5584 5593 5602 5609 5615 5620 5622 5623 5625
5134 5142 5152 5161 5171 5181 5192 5202 5213 5225 5239 5253 5270 5287 5306 5323 5342 5361 5382 5407 5434 5456 5472 5490 5507 5521 5534 5547 5559 5571 5581 5590 5598 5605 5611 5615 5618 5619
5132 5139 5148 5158 5166 5174 5183 5193 5203 5216 5231 5244 5259 5275 5294 5313 5330 5351 5369 5387 5412 5434 5453 5476 5493 5507 5520 5533 5546 5558 5569 5579 5587 5594 5600 5606 5610 5612
5130 5136 5144 5153 5164 5171 5178 5187 5197 5208 5222 5237 5253 5269 5285 5303 5319 5336 5354 5375 5398 5419 5438 5460 5478 5491 5505 5519 5533 5546 5557 5567 5576 5584 5591 5597 5601 5603
5128 5135 5143 5150 5162 5169 5174 5183 5193 5203 5216 5231 5247 5262 5278 5295 5311 5327 5345 5367 5390 5410 5427 5445 5463 5476 5488 5502 5518 5533 5545 5556 5565 5573 5580 5586 5590 5593
5128 5133 5140 5150 5158 5166 5171 5179 5190 5199 5211 5225 5239 5254 5269 5285 5301 5315 5330 5350 5372 5394 5413 5430 5448 5461 5474 5485 5501 5518 5532 5544 5553 5561 5569 5575 5579 5582
5128 5131 5138 5147 5153 5161 5168 5175 5186 5195 5205 5219 5233 5249 5264 5279 5293 5307 5321 5337 5355 5376 5395 5413 5431 5446 5462 5474 5486 5501 5517 5529 5538 5546 5554 5561 5567 5572
5126 5130 5136 5143 5148 5155 5163 5172 5181 5190 5201 5214 5228 5242 5257 5272 5287 5302 5317 5331 5345 5361 5379 5396 5416 5433 5449 5462 5473 5485 5498 5510 5521 5529 5536 5543 5549 5554
5128 5132 5135 5139 5143 5149 5157 5166 5174 5184 5195 5207 5220 5234 5248 5263 5280 5296 5311 5325 5340 5354 5370 5388 5404 5420 5436 5452 5463 5472 5481 5487 5499 5509 5515 5521 5527 5534
5132 5131 5133 5136 5140 5145 5152 5159 5167 5178 5188 5199 5212 5226 5242 5258 5273 5287 5301 5315 5330 5345 5361 5378 5395 5410 5425 5440 5453 5458 5465 5471 5477 5488 5496 5498 5504 5510
5138 5134 5133 5134 5137 5142 5148 5155 5163 5172 5182 5194 5206 5220 5234 5249 5263 5276 5289 5302 5315 5329 5346 5364 5380 5396 5408 5422 5433 5440 5448 5455 5461 5470 5478 5479 5479 5485
5145 5138 5135 5134 5135 5138 5143 5150 5157 5166 5175 5187 5199 5211 5225 5238 5252 5265 5278 5290 5302 5315 5330 5346 5365 5382 5393 5399 5408 5423 5433 5439 5444 5453 5463 5466 5461 5463
5149 5143 5139 5137 5136 5137 5140 5145 5152 5160 5169 5180 5191 5202 5215 5229 5242 5254 5266 5278 5289 5301 5315 5331 5349 5370 5384 5384 5387 5404 5418 5425 5431 5435 5442 5449 5449 5447
5157 5150 5145 5142 5140 5139 5141 5144 5149 5157 5165 5174 5183 5194 5205 5218 5231 5242 5254 5266 5276 5289 5302 5317 5332 5349 5366 5372 5375 5383 5397 5409 5419 5422 5424 5427 5429 5430
5165 5160 5154 5149 5146 5144 5143 5144 5148 5153 5160 5168 5177 5186 5197 5208 5220 5231 5242 5256 5266 5277 5289 5301 5316 5331 5345 5357 5364 5368 5376 5387 5398 5408 5413 5416 5415 5414
5173 5169 5163 5158 5153 5149 5147 5146 5148 5152 5157 5163 5171 5180 5190 5200 5210 5221 5232 5243 5254 5265 5277 5289 5303 5317 5330 5342 5349 5355 5361 5368 5377 5385 5394 5404 5408 5406
5179 5176 5172 5167 5161 5156 5151 5149 5149 5151 5154 5159 5166 5174 5183 5192 5202 5212 5223 5233 5244 5255 5266 5277 5288 5299 5310 5321 5331 5338 5346 5354 5362 5370 5374 5381 5389 5391